ARG7621 SKSP-SKBO

Flight info

Callsign ARG7621
Flight time 1h 36m
Altitude FL370
Route BODE2B BODED VUNIB UP530 RNG VULA4F
Aircraft A320/M-SDE3FGHIRWY/LB1

Departure

Time 2026-05-08 23:08
Airport Gustavo Rojas Pinilla International Airport (SKSP)

Arrival

Time 2026-05-09 00:44
Airport El Dorado International Airport (SKBO)
Time Latitude Longitude Altitude Speed Heading
2026-05-08 22:41 12.58670 -81.70269 15 ft 0 kts 150°
2026-05-08 22:58 12.58674 -81.70271 15 ft 3 kts 150°
2026-05-08 22:59 12.58697 -81.70285 16 ft 4 kts 149°
2026-05-08 22:59 12.58718 -81.70297 17 ft 1 kts 149°
2026-05-08 22:59 12.58719 -81.70298 17 ft 0 kts 149°
2026-05-08 23:02 12.58718 -81.70297 15 ft 1 kts 149°
2026-05-08 23:02 12.58713 -81.70301 16 ft 1 kts 214°
2026-05-08 23:03 12.58703 -81.70331 15 ft 9 kts 264°
2026-05-08 23:03 12.58727 -81.70398 17 ft 11 kts 285°
2026-05-08 23:03 12.58718 -81.70499 18 ft 19 kts 244°
2026-05-08 23:03 12.58640 -81.70638 24 ft 23 kts 240°
2026-05-08 23:04 12.58554 -81.70785 27 ft 25 kts 239°
2026-05-08 23:04 12.58466 -81.70942 30 ft 25 kts 241°
2026-05-08 23:04 12.58376 -81.71098 31 ft 26 kts 240°
2026-05-08 23:04 12.58279 -81.71264 30 ft 28 kts 239°
2026-05-08 23:05 12.58177 -81.71436 28 ft 28 kts 242°
2026-05-08 23:05 12.58077 -81.71614 29 ft 29 kts 240°
2026-05-08 23:05 12.57981 -81.71786 29 ft 26 kts 239°
2026-05-08 23:05 12.57899 -81.71928 31 ft 19 kts 239°
2026-05-08 23:06 12.57823 -81.71997 32 ft 14 kts 213°
2026-05-08 23:06 12.57832 -81.72036 32 ft 3 kts 17°
2026-05-08 23:06 12.57847 -81.72019 32 ft 4 kts 67°
2026-05-08 23:06 12.57855 -81.72001 32 ft 1 kts 60°
2026-05-08 23:07 12.57861 -81.71991 32 ft 3 kts 60°
2026-05-08 23:07 12.57986 -81.71773 29 ft 76 kts 59°
2026-05-08 23:07 12.58370 -81.71107 31 ft 139 kts 59°
2026-05-08 23:07 12.58946 -81.70118 163 ft 173 kts 59°
2026-05-08 23:08 12.59456 -81.69288 1511 ft 120 kts 59°
2026-05-08 23:08 12.59916 -81.68528 2017 ft 130 kts 60°
2026-05-08 23:08 12.60392 -81.67570 2029 ft 172 kts 79°
2026-05-08 23:08 12.60104 -81.66350 2371 ft 194 kts 126°
2026-05-08 23:09 12.58963 -81.65533 2818 ft 214 kts 150°
2026-05-08 23:09 12.57517 -81.64924 3167 ft 239 kts 156°
2026-05-08 23:09 12.55896 -81.64338 3587 ft 257 kts 157°
2026-05-08 23:09 12.54150 -81.63729 4143 ft 270 kts 157°
2026-05-08 23:10 12.52408 -81.62994 4874 ft 274 kts 149°
2026-05-08 23:10 12.50785 -81.61958 5600 ft 276 kts 140°
2026-05-08 23:10 12.49307 -81.60690 6321 ft 281 kts 134°
2026-05-08 23:10 12.47909 -81.59278 6992 ft 284 kts 131°
2026-05-08 23:11 12.46564 -81.57816 7795 ft 282 kts 131°
2026-05-08 23:11 12.45334 -81.56454 8459 ft 285 kts 131°
2026-05-08 23:11 12.43990 -81.54965 9209 ft 286 kts 131°
2026-05-08 23:11 12.42638 -81.53476 9931 ft 288 kts 132°
2026-05-08 23:12 12.41254 -81.51959 10350 ft 301 kts 132°
2026-05-08 23:12 12.39776 -81.50343 10523 ft 321 kts 132°
2026-05-08 23:12 12.38211 -81.48634 10758 ft 338 kts 132°
2026-05-08 23:12 12.36595 -81.46870 11292 ft 342 kts 132°
2026-05-08 23:13 12.34964 -81.45094 11944 ft 344 kts 131°
2026-05-08 23:13 12.33323 -81.43308 12530 ft 347 kts 131°
2026-05-08 23:13 12.31666 -81.41502 13116 ft 351 kts 131°
2026-05-08 23:13 12.29989 -81.39676 13704 ft 354 kts 131°
2026-05-08 23:14 12.28300 -81.37837 14239 ft 357 kts 131°
2026-05-08 23:14 12.26598 -81.35985 14760 ft 360 kts 131°
2026-05-08 23:14 12.24876 -81.34111 15260 ft 363 kts 131°
2026-05-08 23:14 12.23144 -81.32226 15774 ft 366 kts 131°
2026-05-08 23:15 12.21395 -81.30323 16273 ft 370 kts 131°
2026-05-08 23:15 12.19630 -81.28403 16766 ft 373 kts 131°
2026-05-08 23:15 12.17852 -81.26467 17256 ft 376 kts 131°
2026-05-08 23:15 12.16058 -81.24516 17731 ft 379 kts 131°
2026-05-08 23:16 12.14252 -81.22552 18199 ft 382 kts 131°
2026-05-08 23:16 12.12429 -81.20570 18614 ft 384 kts 131°
2026-05-08 23:16 12.10597 -81.18579 19043 ft 386 kts 131°
2026-05-08 23:16 12.08753 -81.16576 19459 ft 389 kts 130°
2026-05-08 23:17 12.06902 -81.14564 19892 ft 391 kts 130°
2026-05-08 23:17 12.05038 -81.12540 20301 ft 393 kts 130°
2026-05-08 23:17 12.03163 -81.10504 20711 ft 395 kts 130°
2026-05-08 23:17 12.01281 -81.08460 21120 ft 397 kts 130°
2026-05-08 23:18 11.99386 -81.06402 21525 ft 399 kts 130°
2026-05-08 23:18 11.97480 -81.04334 21924 ft 402 kts 130°
2026-05-08 23:18 11.95564 -81.02254 22310 ft 404 kts 130°
2026-05-08 23:18 11.93637 -81.00162 22705 ft 406 kts 130°
2026-05-08 23:19 11.91698 -80.98059 23083 ft 408 kts 130°
2026-05-08 23:19 11.89749 -80.95946 23468 ft 411 kts 130°
2026-05-08 23:19 11.87791 -80.93822 23773 ft 413 kts 130°
2026-05-08 23:19 11.85821 -80.91686 24066 ft 415 kts 130°
2026-05-08 23:20 11.83841 -80.89539 24373 ft 417 kts 130°
2026-05-08 23:20 11.81849 -80.87381 24665 ft 419 kts 130°
2026-05-08 23:20 11.79847 -80.85211 24956 ft 422 kts 130°
2026-05-08 23:20 11.77834 -80.83031 25243 ft 424 kts 130°
2026-05-08 23:21 11.75805 -80.80849 25531 ft 426 kts 131°
2026-05-08 23:21 11.73755 -80.78660 25805 ft 428 kts 131°
2026-05-08 23:21 11.71696 -80.76463 26070 ft 431 kts 131°
2026-05-08 23:21 11.69626 -80.74252 26340 ft 433 kts 131°
2026-05-08 23:22 11.67548 -80.72032 26598 ft 435 kts 131°
2026-05-08 23:22 11.65462 -80.69801 26862 ft 437 kts 131°
2026-05-08 23:22 11.63363 -80.67556 27106 ft 439 kts 131°
2026-05-08 23:22 11.61256 -80.65303 27362 ft 441 kts 131°
2026-05-08 23:23 11.59139 -80.63041 27613 ft 443 kts 131°
2026-05-08 23:23 11.57012 -80.60768 27850 ft 445 kts 131°
2026-05-08 23:23 11.54878 -80.58489 28088 ft 447 kts 131°
2026-05-08 23:23 11.52732 -80.56199 28325 ft 448 kts 131°
2026-05-08 23:24 11.50578 -80.53900 28559 ft 450 kts 131°
2026-05-08 23:24 11.48414 -80.51590 28775 ft 452 kts 131°
2026-05-08 23:24 11.46242 -80.49272 28996 ft 454 kts 131°
2026-05-08 23:24 11.44059 -80.46944 29215 ft 456 kts 131°
2026-05-08 23:25 11.41870 -80.44609 29456 ft 457 kts 131°
2026-05-08 23:25 11.39671 -80.42265 29671 ft 460 kts 131°
2026-05-08 23:25 11.37461 -80.39909 29887 ft 461 kts 131°
2026-05-08 23:25 11.35243 -80.37546 30091 ft 463 kts 131°
2026-05-08 23:26 11.33021 -80.35178 30311 ft 464 kts 132°
2026-05-08 23:26 11.30790 -80.32803 30528 ft 465 kts 131°
2026-05-08 23:26 11.28556 -80.30423 30734 ft 467 kts 132°
2026-05-08 23:26 11.26313 -80.28035 30967 ft 468 kts 132°
2026-05-08 23:27 11.24071 -80.25649 31257 ft 467 kts 132°
2026-05-08 23:27 11.21833 -80.23267 31558 ft 466 kts 132°
2026-05-08 23:27 11.19597 -80.20889 31858 ft 465 kts 132°
2026-05-08 23:27 11.17369 -80.18520 32146 ft 464 kts 132°
2026-05-08 23:28 11.15146 -80.16155 32432 ft 463 kts 132°
2026-05-08 23:28 11.12925 -80.13794 32726 ft 462 kts 132°
2026-05-08 23:28 11.10710 -80.11439 32989 ft 461 kts 132°
2026-05-08 23:28 11.08499 -80.09089 33256 ft 460 kts 132°
2026-05-08 23:29 11.06293 -80.06745 33510 ft 459 kts 132°
2026-05-08 23:29 11.04086 -80.04401 33772 ft 459 kts 133°
2026-05-08 23:29 11.01886 -80.02063 33968 ft 458 kts 133°
2026-05-08 23:29 10.99683 -79.99724 34130 ft 459 kts 133°
2026-05-08 23:30 10.97479 -79.97385 34305 ft 459 kts 133°
2026-05-08 23:30 10.95277 -79.95049 34476 ft 459 kts 133°
2026-05-08 23:30 10.93069 -79.92707 34636 ft 459 kts 133°
2026-05-08 23:30 10.90864 -79.90368 34787 ft 459 kts 133°
2026-05-08 23:31 10.88657 -79.88028 34961 ft 459 kts 133°
2026-05-08 23:31 10.86450 -79.85688 35122 ft 459 kts 133°
2026-05-08 23:31 10.84244 -79.83350 35278 ft 459 kts 133°
2026-05-08 23:31 10.82035 -79.81010 35463 ft 459 kts 133°
2026-05-08 23:32 10.79829 -79.78673 35606 ft 459 kts 133°
2026-05-08 23:32 10.77623 -79.76336 35759 ft 459 kts 133°
2026-05-08 23:32 10.75417 -79.74001 35907 ft 459 kts 133°
2026-05-08 23:32 10.73208 -79.71662 36065 ft 459 kts 133°
2026-05-08 23:33 10.71004 -79.69329 36225 ft 459 kts 133°
2026-05-08 23:33 10.68796 -79.66993 36382 ft 458 kts 133°
2026-05-08 23:33 10.66595 -79.64664 36526 ft 458 kts 134°
2026-05-08 23:33 10.64392 -79.62333 36660 ft 458 kts 134°
2026-05-08 23:34 10.62189 -79.60004 36797 ft 458 kts 134°
2026-05-08 23:34 10.59985 -79.57674 36860 ft 458 kts 134°
2026-05-08 23:34 10.55587 -79.53025 36862 ft 457 kts 134°
2026-05-08 23:35 10.51183 -79.48380 36865 ft 458 kts 134°
2026-05-08 23:35 10.46746 -79.43770 36859 ft 457 kts 134°
2026-05-08 23:36 10.42301 -79.39159 36864 ft 458 kts 134°
2026-05-08 23:36 10.37858 -79.34544 36864 ft 458 kts 135°
2026-05-08 23:37 10.33408 -79.29922 36866 ft 458 kts 135°
2026-05-08 23:37 10.28960 -79.25303 36864 ft 459 kts 135°
2026-05-08 23:38 10.24510 -79.20684 36865 ft 459 kts 135°
2026-05-08 23:38 10.20052 -79.16059 36864 ft 459 kts 135°
2026-05-08 23:39 10.15598 -79.11440 36865 ft 459 kts 135°
2026-05-08 23:39 10.11139 -79.06819 36863 ft 459 kts 135°
2026-05-08 23:40 10.06681 -79.02199 36858 ft 459 kts 135°
2026-05-08 23:40 10.02221 -78.97579 36859 ft 459 kts 135°
2026-05-08 23:41 9.97763 -78.92964 36855 ft 459 kts 135°
2026-05-08 23:41 9.93300 -78.88346 36853 ft 459 kts 136°
2026-05-08 23:42 9.88836 -78.83729 36851 ft 459 kts 136°
2026-05-08 23:42 9.84376 -78.79117 36850 ft 459 kts 136°
2026-05-08 23:43 9.79909 -78.74501 36853 ft 459 kts 136°
2026-05-08 23:43 9.75446 -78.69889 36851 ft 459 kts 136°
2026-05-08 23:44 9.70980 -78.65275 36854 ft 459 kts 136°
2026-05-08 23:44 9.66514 -78.60666 36852 ft 459 kts 136°
2026-05-08 23:45 9.62048 -78.56059 36852 ft 459 kts 136°
2026-05-08 23:45 9.57587 -78.51458 36853 ft 459 kts 136°
2026-05-08 23:46 9.53125 -78.46857 36849 ft 458 kts 136°
2026-05-08 23:46 9.48665 -78.42261 36857 ft 458 kts 136°
2026-05-08 23:47 9.44207 -78.37668 36858 ft 458 kts 136°
2026-05-08 23:47 9.39748 -78.33076 36852 ft 458 kts 136°
2026-05-08 23:48 9.35289 -78.28486 36860 ft 458 kts 136°
2026-05-08 23:48 9.30831 -78.23899 36852 ft 458 kts 136°
2026-05-08 23:49 9.26372 -78.19311 36852 ft 458 kts 135°
2026-05-08 23:49 9.22027 -78.14608 36844 ft 459 kts 134°
2026-05-08 23:50 9.17709 -78.09864 36848 ft 459 kts 134°
2026-05-08 23:50 9.13376 -78.05139 36838 ft 459 kts 134°
2026-05-08 23:51 9.09027 -78.00412 36843 ft 460 kts 134°
2026-05-08 23:51 9.04674 -77.95684 36848 ft 460 kts 134°
2026-05-08 23:52 9.00314 -77.90948 36848 ft 461 kts 134°
2026-05-08 23:52 8.95946 -77.86207 36852 ft 462 kts 134°
2026-05-08 23:53 8.91574 -77.81461 36864 ft 462 kts 134°
2026-05-08 23:53 8.87211 -77.76728 36853 ft 459 kts 134°
2026-05-08 23:54 8.82861 -77.72011 36853 ft 459 kts 134°
2026-05-08 23:55 8.76341 -77.64944 36853 ft 459 kts 134°
2026-05-08 23:55 8.72003 -77.60244 36853 ft 458 kts 134°
2026-05-08 23:56 8.67665 -77.55547 36857 ft 457 kts 134°
2026-05-08 23:56 8.63337 -77.50861 36858 ft 457 kts 134°
2026-05-08 23:57 8.59009 -77.46178 36856 ft 457 kts 134°
2026-05-08 23:57 8.54673 -77.41506 36853 ft 456 kts 136°
2026-05-08 23:58 8.50074 -77.37105 36856 ft 456 kts 137°
2026-05-08 23:58 8.45472 -77.32716 36851 ft 456 kts 137°
2026-05-08 23:59 8.40867 -77.28323 36850 ft 456 kts 137°
2026-05-08 23:59 8.36255 -77.23928 36848 ft 457 kts 137°
2026-05-09 00:00 8.31641 -77.19533 36843 ft 457 kts 137°
2026-05-09 00:00 8.27018 -77.15131 36852 ft 458 kts 137°
2026-05-09 00:01 8.22390 -77.10725 36850 ft 459 kts 137°
2026-05-09 00:01 8.17755 -77.06315 36850 ft 459 kts 137°
2026-05-09 00:02 8.13109 -77.01894 36858 ft 460 kts 137°
2026-05-09 00:02 8.08457 -76.97471 36865 ft 461 kts 137°
2026-05-09 00:03 8.03809 -76.93051 36845 ft 458 kts 137°
2026-05-09 00:03 7.99180 -76.88652 36830 ft 458 kts 137°
2026-05-09 00:04 7.94552 -76.84254 36818 ft 457 kts 137°
2026-05-09 00:04 7.89932 -76.79867 36806 ft 457 kts 137°
2026-05-09 00:05 7.85321 -76.75489 36802 ft 456 kts 137°
2026-05-09 00:05 7.80567 -76.71285 36804 ft 455 kts 144°
2026-05-09 00:06 7.75416 -76.67621 36796 ft 454 kts 145°
2026-05-09 00:06 7.70274 -76.63958 36804 ft 453 kts 145°
2026-05-09 00:07 7.65132 -76.60294 36829 ft 453 kts 145°
2026-05-09 00:07 7.59991 -76.56633 36842 ft 453 kts 145°
2026-05-09 00:08 7.54850 -76.52973 36850 ft 454 kts 145°
2026-05-09 00:08 7.49701 -76.49311 36869 ft 454 kts 145°
2026-05-09 00:09 7.44547 -76.45645 36877 ft 455 kts 145°
2026-05-09 00:09 7.39389 -76.41978 36887 ft 455 kts 145°
2026-05-09 00:10 7.34221 -76.38305 36903 ft 456 kts 145°
2026-05-09 00:10 7.29049 -76.34629 36914 ft 456 kts 145°
2026-05-09 00:11 7.23871 -76.30950 36937 ft 457 kts 145°
2026-05-09 00:11 7.18685 -76.27266 36941 ft 456 kts 145°
2026-05-09 00:12 7.13521 -76.23597 36954 ft 455 kts 145°
2026-05-09 00:12 7.08357 -76.19930 36960 ft 455 kts 145°
2026-05-09 00:13 7.03198 -76.16267 36973 ft 455 kts 145°
2026-05-09 00:13 6.98038 -76.12605 36976 ft 454 kts 145°
2026-05-09 00:14 6.92883 -76.08947 36976 ft 454 kts 145°
2026-05-09 00:14 6.87733 -76.05293 36975 ft 454 kts 145°
2026-05-09 00:15 6.82587 -76.01644 36978 ft 454 kts 145°
2026-05-09 00:15 6.77438 -75.97993 36972 ft 454 kts 145°
2026-05-09 00:16 6.72284 -75.94339 36972 ft 454 kts 145°
2026-05-09 00:16 6.67132 -75.90689 36977 ft 455 kts 145°
2026-05-09 00:17 6.61967 -75.87029 36978 ft 455 kts 145°
2026-05-09 00:17 6.56792 -75.83363 36984 ft 456 kts 145°
2026-05-09 00:18 6.51612 -75.79695 36985 ft 457 kts 145°
2026-05-09 00:18 6.46419 -75.76019 37016 ft 458 kts 145°
2026-05-09 00:19 6.41213 -75.72335 37046 ft 459 kts 145°
2026-05-09 00:19 6.35996 -75.68644 37077 ft 460 kts 145°
2026-05-09 00:20 6.30763 -75.64942 37102 ft 461 kts 146°
2026-05-09 00:20 6.25545 -75.61251 37104 ft 459 kts 146°
2026-05-09 00:21 6.20328 -75.57563 37101 ft 460 kts 146°
2026-05-09 00:21 6.15130 -75.53888 37099 ft 460 kts 146°
2026-05-09 00:21 6.12516 -75.52041 37250 ft 460 kts 146°
2026-05-09 00:22 6.09903 -75.50195 37253 ft 460 kts 146°
2026-05-09 00:22 6.04672 -75.46499 37235 ft 461 kts 146°
2026-05-09 00:23 5.99547 -75.42645 37199 ft 462 kts 138°
2026-05-09 00:23 5.95352 -75.37787 37135 ft 462 kts 124°
2026-05-09 00:23 5.93582 -75.35103 36813 ft 461 kts 124°
2026-05-09 00:24 5.91807 -75.32424 36190 ft 463 kts 124°
2026-05-09 00:24 5.90013 -75.29726 35364 ft 468 kts 124°
2026-05-09 00:24 5.88211 -75.27020 34467 ft 474 kts 124°
2026-05-09 00:24 5.86381 -75.24271 33838 ft 472 kts 124°
2026-05-09 00:25 5.84574 -75.21556 33341 ft 466 kts 124°
2026-05-09 00:25 5.82791 -75.18879 32757 ft 458 kts 124°
2026-05-09 00:25 5.81031 -75.16236 31970 ft 453 kts 124°
2026-05-09 00:25 5.79294 -75.13628 31232 ft 447 kts 124°
2026-05-09 00:26 5.77582 -75.11056 30535 ft 441 kts 124°
2026-05-09 00:26 5.75891 -75.08515 29801 ft 435 kts 124°
2026-05-09 00:26 5.74228 -75.06019 29107 ft 427 kts 124°
2026-05-09 00:26 5.72605 -75.03583 28676 ft 414 kts 124°
2026-05-09 00:27 5.71033 -75.01224 28214 ft 402 kts 124°
2026-05-09 00:27 5.69502 -74.98927 27757 ft 391 kts 124°
2026-05-09 00:27 5.68014 -74.96696 27314 ft 380 kts 124°
2026-05-09 00:27 5.66566 -74.94523 26879 ft 370 kts 124°
2026-05-09 00:28 5.65154 -74.92406 26463 ft 362 kts 124°
2026-05-09 00:28 5.63759 -74.90315 26041 ft 360 kts 124°
2026-05-09 00:28 5.62373 -74.88238 25623 ft 358 kts 124°
2026-05-09 00:28 5.60994 -74.86170 25209 ft 356 kts 124°
2026-05-09 00:29 5.59620 -74.84112 24793 ft 355 kts 124°
2026-05-09 00:29 5.58250 -74.82058 24360 ft 354 kts 124°
2026-05-09 00:29 5.56884 -74.80013 23940 ft 353 kts 124°
2026-05-09 00:29 5.55524 -74.77976 23512 ft 353 kts 124°
2026-05-09 00:30 5.54167 -74.75942 23100 ft 349 kts 123°
2026-05-09 00:30 5.52823 -74.73929 22683 ft 346 kts 123°
2026-05-09 00:30 5.51492 -74.71934 22289 ft 344 kts 123°
2026-05-09 00:30 5.50171 -74.69954 21886 ft 341 kts 123°
2026-05-09 00:31 5.48857 -74.67985 21496 ft 339 kts 123°
2026-05-09 00:31 5.47554 -74.66033 21097 ft 336 kts 124°
2026-05-09 00:31 5.46258 -74.64093 20713 ft 335 kts 123°
2026-05-09 00:31 5.44969 -74.62161 20323 ft 333 kts 124°
2026-05-09 00:32 5.43685 -74.60239 19945 ft 331 kts 124°
2026-05-09 00:32 5.42408 -74.58326 19563 ft 330 kts 124°
2026-05-09 00:32 5.41137 -74.56423 19184 ft 329 kts 124°
2026-05-09 00:32 5.39867 -74.54522 18800 ft 328 kts 124°
2026-05-09 00:33 5.38600 -74.52624 18428 ft 327 kts 124°
2026-05-09 00:33 5.37337 -74.50734 17951 ft 328 kts 124°
2026-05-09 00:33 5.36060 -74.48823 17326 ft 333 kts 123°
2026-05-09 00:33 5.34776 -74.46902 16951 ft 330 kts 123°
2026-05-09 00:34 5.33509 -74.45007 16751 ft 324 kts 123°
2026-05-09 00:34 5.32234 -74.43098 16667 ft 336 kts 123°
2026-05-09 00:34 5.30932 -74.41150 16600 ft 335 kts 123°
2026-05-09 00:34 5.29523 -74.39322 16612 ft 331 kts 137°
2026-05-09 00:35 5.27576 -74.38085 16532 ft 336 kts 159°
2026-05-09 00:35 5.25310 -74.37554 16310 ft 337 kts 173°
2026-05-09 00:35 5.22965 -74.37352 15845 ft 341 kts 176°
2026-05-09 00:35 5.20579 -74.37186 15196 ft 348 kts 175°
2026-05-09 00:36 5.18163 -74.36962 14679 ft 350 kts 173°
2026-05-09 00:36 5.15768 -74.36684 14132 ft 345 kts 172°
2026-05-09 00:36 5.13399 -74.36373 13477 ft 342 kts 172°
2026-05-09 00:36 5.11056 -74.36049 12875 ft 337 kts 172°
2026-05-09 00:37 5.08797 -74.35730 12654 ft 320 kts 171°
2026-05-09 00:37 5.06647 -74.35426 12509 ft 310 kts 171°
2026-05-09 00:37 5.04496 -74.35122 12426 ft 315 kts 171°
2026-05-09 00:37 5.02331 -74.34818 12428 ft 316 kts 171°
2026-05-09 00:38 5.00167 -74.34513 12436 ft 314 kts 171°
2026-05-09 00:38 4.98027 -74.34213 12447 ft 314 kts 171°
2026-05-09 00:38 4.95884 -74.33914 12454 ft 307 kts 171°
2026-05-09 00:38 4.93817 -74.33624 12374 ft 295 kts 171°
2026-05-09 00:39 4.91831 -74.33345 12284 ft 283 kts 171°
2026-05-09 00:39 4.89923 -74.33077 12196 ft 271 kts 171°
2026-05-09 00:39 4.88097 -74.32821 12100 ft 260 kts 171°
2026-05-09 00:39 4.86349 -74.32575 11963 ft 250 kts 171°
2026-05-09 00:40 4.84688 -74.32205 11941 ft 243 kts 159°
2026-05-09 00:40 4.83260 -74.31485 12372 ft 235 kts 146°
2026-05-09 00:40 4.81882 -74.30398 11871 ft 258 kts 135°
2026-05-09 00:41 4.79546 -74.28097 12024 ft 210 kts 135°
2026-05-09 00:41 4.78648 -74.27059 12024 ft 187 kts 123°
2026-05-09 00:41 4.77947 -74.26052 12015 ft 167 kts 124°
2026-05-09 00:41 4.77318 -74.25198 12022 ft 141 kts 126°
2026-05-09 00:42 4.76710 -74.24391 11884 ft 162 kts 126°
2026-05-09 00:42 4.75922 -74.23355 11311 ft 217 kts 126°
2026-05-09 00:42 4.74947 -74.22085 10803 ft 226 kts 127°
2026-05-09 00:42 4.74043 -74.20899 10275 ft 206 kts 126°
2026-05-09 00:43 4.73218 -74.19760 9594 ft 199 kts 125°
2026-05-09 00:43 4.72421 -74.18666 9013 ft 189 kts 128°
2026-05-09 00:43 4.71622 -74.17662 8534 ft 178 kts 126°
2026-05-09 00:43 4.70908 -74.16739 8372 ft 159 kts 120°
2026-05-09 00:44 4.70298 -74.15930 8364 ft 129 kts 128°
2026-05-09 00:44 4.69844 -74.15330 8365 ft 89 kts 128°
2026-05-09 00:44 4.69541 -74.14924 8362 ft 58 kts 128°
2026-05-09 00:44 4.69426 -74.14773 8362 ft 17 kts 127°
2026-05-09 00:45 4.69356 -74.14679 8361 ft 16 kts 123°
2026-05-09 00:45 4.69370 -74.14615 8362 ft 9 kts 53°
2026-05-09 00:45 4.69412 -74.14571 8363 ft 9 kts 37°
2026-05-09 00:45 4.69461 -74.14535 8364 ft 9 kts 31°
2026-05-09 00:46 4.69513 -74.14550 8364 ft 8 kts 341°
2026-05-09 00:46 4.69552 -74.14583 8364 ft 8 kts 309°
2026-05-09 00:46 4.69588 -74.14629 8364 ft 9 kts 307°
2026-05-09 00:46 4.69627 -74.14681 8364 ft 10 kts 307°
2026-05-09 00:47 4.69671 -74.14738 8364 ft 11 kts 307°
2026-05-09 00:47 4.69721 -74.14798 8364 ft 11 kts 327°
2026-05-09 00:47 4.69787 -74.14783 8364 ft 10 kts 39°
2026-05-09 00:47 4.69847 -74.14737 8364 ft 11 kts 37°
2026-05-09 00:48 4.69913 -74.14688 8364 ft 12 kts 36°
2026-05-09 00:48 4.69983 -74.14636 8365 ft 13 kts 38°
2026-05-09 00:48 4.70048 -74.14586 8365 ft 10 kts 37°
2026-05-09 00:48 4.70061 -74.14535 8365 ft 7 kts 118°
2026-05-09 00:49 4.70027 -74.14495 8365 ft 8 kts 128°
2026-05-09 00:49 4.69989 -74.14447 8365 ft 10 kts 128°
2026-05-09 00:49 4.69948 -74.14391 8365 ft 10 kts 126°
2026-05-09 00:49 4.69949 -74.14365 8365 ft 2 kts 40°
2026-05-09 00:50 4.69963 -74.14354 8365 ft 3 kts 37°
2026-05-09 00:50 4.69982 -74.14340 8365 ft 1 kts 37°
2026-05-09 00:50 4.69989 -74.14335 8365 ft 0 kts 37°
2026-05-09 00:50 4.69992 -74.14332 8365 ft 0 kts 37°